Regional Weather Roundup
Issued by NWS Jackson, KY

Home | Current Version | Previous Version | Graphics & Text | Print | Product List | Glossary On
Versions: 1 2 3 4 5 6 7 8 9 10 11 12 13 14 15 16 17 18 19 20 21 22 23 24 25 26 27 28 29 30 31 32 33 34 35 36 37 38 39 40 41 42 43 44 45 46 47 48 49 50
000
ASUS43 KJKL 042110
RWRJKL

EAST KENTUCKY HOURLY WEATHER ROUNDUP
NATIONAL WEATHER SERVICE JACKSON KY
500 PM EDT FRI SEP 04 2015

NOTE: "FAIR" INDICATES FEW OR NO CLOUDS BELOW 12,000 FEET WITH
NO SIGNIFICANT WEATHER AND/OR OBSTRUCTIONS TO VISIBILITY.

* THESE REPORTS ARE NOT UNDER NWS QUALITY CONTROL AND MAY NOT
  REPORT WEATHER SUCH AS PRECIPITATION AND FOG.

KYZ079-080-083-085-087-088-110-112-115-119-120-042200
...EASTERN KENTUCKY...

CITY           SKY/WX    TMP DP  RH WIND       PRES   REMARKS
JACKSON          N/A     82  68  62 CALM      30.05F
LONDON           N/A     92  61  35 VRB6      30.04F HX  92
SOMERSET*        N/A     88  61  40 CALM      30.03F
MONTICELLO*      N/A     93  64  38 CALM      30.05F HX  94
WILLIAMSBURG*  MOSUNNY   90  63  40 NE5       30.03F HX  90
MIDDLESBORO*     N/A     89  65  43 CALM      30.03F HX  91
HARLAN APT*      N/A     88  54  31 MISG      30.05F
HAZARD APT*    CLEAR     90  61  37 CALM      30.04F
BLACK MTN*       N/A     75  64  69 VRB2        N/A
PIKEVILLE APT* SUNNY     81  68  65 N5        30.06F
BIG SANDY*       N/A     84  69  61 CALM      30.05F
MOREHEAD APT*    N/A     90  64  43 CALM      30.05F HX  91
$$

KYZ035-036-041-042-044-050-067-078-099-042200
...CENTRAL KENTUCKY...

CITY           SKY/WX    TMP DP  RH WIND       PRES   REMARKS
MT STERLING*     N/A    N/A N/A N/A CALM      30.04F
FLEMING/MASON* SUNNY     91  63  38 SW3       30.03F HX  92
DANVILLE*        N/A     91  61  35 CALM      30.04F HX  91
RICHMOND*        N/A     91  57  31 CALM      30.03F HX  90
LEXINGTON        N/A     91  62  37 CALM      30.02F HX  91
FRANKFORT      CLOUDY    92  63  38 NE3       30.01F HX  93
$$

KYZ091>093-OHZ055-061-077-WVZ005-015-034-035-042-042200
...SOUTHERN OHIO/WEST VIRGINIA...

CITY           SKY/WX    TMP DP  RH WIND       PRES   REMARKS
COVINGTON        N/A     92  67  43 SW6       30.01F HX  95
COLUMBUS       CLOUDY    73  61  64 NW25G37   30.08R
DAYTON         TSTM      69  67  93 S13       30.06F
WILMINGTON       N/A     90  68  48 SW7       30.02F HX  94
HUNTINGTON       N/A     88  69  53 VRB5      30.02F HX  92
CHARLESTON       N/A     87  64  46 CALM      30.03F
PINEVILLE*       N/A     89  66  45 MISG      30.11F HX  91
BECKLEY        PTSUNNY   77  64  64 CALM      30.13F
BLUEFIELD      TSTM      71  62  73 SW6       30.16R
$$

VAZ002-007-008-TNZ017-027-036-066-071-042200
...SOUTHWEST VIRGINIA/EAST TENNESSEE...

CITY           SKY/WX    TMP DP  RH WIND       PRES   REMARKS
WISE*            N/A     84  55  37 NE5       30.13F
JONESVILLE*      N/A     90  63  40 N5        30.06F HX  90
ABINGDON*        N/A     87  60  40 N7        30.08F
BRISTOL          N/A     90  61  37 VRB3      30.03F HX  90
KNOXVILLE        N/A     91  62  37 NE10      29.99F HX  91
OAK RIDGE        N/A     92  63  38 VRB6      30.02F HX  93
CROSSVILLE       N/A     86  62  44 E6        30.08F
NASHVILLE        N/A     94  62  34 E6        29.99F HX  94
$$

...KEY TO REMARKS...
VSB - VISIBILITY IN MILES
WCI - WIND CHILL INDEX
HX  - HEAT INDEX

$$


USA.gov is the U.S. government's official web portal to all federal, state and local government web resources and services.